Regional Weather Roundup
Issued by NWS Boston, MA

Current Version | Previous Version | Text Only | Print | Product List | Glossary Off
Versions: 1 2 3 4 5 6 7 8 9 10 11 12 13 14 15 16 17 18 19 20 21 22 23 24 25 26 27

000
ASUS41 KBOX 181810
RWRBOX

REGIONAL WEATHER ROUNDUP
NATIONAL WEATHER SERVICE TAUNTON MA
200 PM EDT FRI AUG 18 2017

NOTE:  "FAIR" INDICATES FEW OR NO CLOUDS BELOW 12,000 FEET WITH NO
SIGNIFICANT WEATHER AND/OR OBSTRUCTIONS TO VISIBILITY.

MAZALL-181900-
EASTERN MASSACHUSETTS

CITY           SKY/WX    TMP DP  RH WIND       PRES   REMARKS
BOSTON         CLOUDY    79  69  71 S20G28    29.86
6HR MIN TEMP:  68; 6HR MAX TEMP:  80; 6HR PCP: TRACE;

BEVERLY        CLOUDY    77  70  79 S10       29.85F
LAWRENCE       CLOUDY    78  72  81 NE3       29.87F
BEDFORD        PTSUNNY   81  67  62 S13G23    29.84F
BLUE HILL        N/A     77  68  73 S17G30    29.88F
NORWOOD        CLOUDY    80  72  76 S16G22    29.87S
MARSHFIELD     CLOUDY    77  72  83 VRB7G16   29.88F
PLYMOUTH       CLOUDY    75  69  81 S12G23    29.91F
TAUNTON        CLOUDY    78  68  71 S9G21     29.89F
NEW BEDFORD    LGT RAIN  74  70  87 S14G22    29.91S
$$

MAZALL-181900-
CAPE COD AND THE ISLANDS

CITY           SKY/WX    TMP DP  RH WIND       PRES   REMARKS
FALMOUTH       CLOUDY    75  70  83 S18G24    29.92F
HYANNIS        LGT RAIN  74  71  91 S10G18    29.91F
CHATHAM        CLOUDY    69  68  96 S9        29.95F
PROVINCETOWN   CLOUDY    74  70  87 S16G23    29.91F
NANTUCKET      CLOUDY    70  69  97 S13       29.95F FOG
MARTHAS VNYRD  LGT RAIN  72  69  90 S17       29.92F FOG
$$

MAZALL-181900-
CENTRAL AND WESTERN MASSACHUSETTS

CITY           SKY/WX    TMP DP  RH WIND       PRES   REMARKS
WORCESTER      CLOUDY    76  66  71 S12       29.89F
6HR MIN TEMP:  65; 6HR MAX TEMP:  78;

FITCHBURG      LGT RAIN  79  71  76 S5        29.86F
ORANGE         CLOUDY    74  71  91 SE5       29.86F
SPRINGFIELD    CLOUDY    78  70  76 S13       29.82F
WESTFIELD      CLOUDY    78  73  84 S7        29.83F
NORTH ADAMS    LGT RAIN  74  71  91 VRB3      29.83F FOG
PITTSFIELD     CLOUDY    73  69  87 S8        29.85F
$$

RIZALL-181900-
RHODE ISLAND

CITY           SKY/WX    TMP DP  RH WIND       PRES   REMARKS
PROVIDENCE     CLOUDY    79  72  78 S14G28    29.90F
NEWPORT        LGT RAIN  72  72 100 S12       29.91F FOG
BLOCK ISLAND   HVY RAIN  72  72 100 S13       29.92S FOG
WESTERLY       LGT RAIN  73  72  96 S14G23    29.89F FOG
$$

CTZALL-181900-
CONNECTICUT

CITY           SKY/WX    TMP DP  RH WIND       PRES   REMARKS
BRADLEY INTL   NOT AVBL
HARTFORD       CLOUDY    79  74  84 S12       29.83F
BRIDGEPORT     CLOUDY    79  75  87 S14       29.84F
DANBURY        CLOUDY    77  75  93 SW8       29.86F
GROTON         LGT RAIN  73  72  96 S15       29.87F FOG
NEW HAVEN      CLOUDY    79  75  87 S8        29.85F
CHESTER        NOT AVBL
MERIDEN        CLOUDY    77  74  90 S6        29.84F
WILLIMANTIC    CLOUDY    78  73  84 S12       29.86F
OXFORD         LGT RAIN  75  73  94 S7        29.87F
$$

MEZ002-015-021-024-NHZ003-005-008-011-012-014-VTZ005-008-181900-
NORTHERN NEW ENGLAND

CITY           SKY/WX    TMP DP  RH WIND       PRES   REMARKS
PORTLAND ME    RAIN      62  60  93 E14       29.94S FOG
6HR MIN TEMP:  61; 6HR MAX TEMP:  65; 6HR PCP:  0.52;

BANGOR ME      CLOUDY    66  56  70 S8        29.98F
CONCORD NH     NOT AVBL
MANCHESTER NH  HVY RAIN  70  67  90 CALM      29.86S FOG
NASHUA NH      LGT RAIN  72  71  97 CALM      29.86F FOG
PORTSMOUTH NH  LGT RAIN  68  67  97 SE8       29.86F FOG
JAFFREY NH     LGT RAIN  70  70 100 CALM      29.89F FOG
KEENE NH         N/A    N/A N/A N/A MISG        N/A
BURLINGTON VT  PTSUNNY   79  71  76 S15G22    29.75F
MT. WASHINGTON FOG       50  50 100 SW16G28     N/A  VSB 0
$$

NYZ052-076-181900-
EASTERN NEW YORK

CITY           SKY/WX    TMP DP  RH WIND       PRES   REMARKS
ALBANY         NOT AVBL
NEW YORK CITY  LGT RAIN  81  77  88 S13       29.83F
6HR MIN TEMP:  73; 6HR MAX TEMP:  82; 6HR PCP:  0.86;

$$

ANZALL-181900-
MARINE OBSERVATIONS

STATION/POSITION TIME  TEMP    WIND        PRES    VSBY  WAVE
                       AIR SEA DIR/SP/G                  HT/PER
                 (UTC) (F)     (DEG/KT/KT) (MB)    (MI)  (FT/S)
BOSTON BUOY      1750   69 68  150/ 16/ 17 1011.6F         2/ 4
BUZZARDS BAY     1700   70     170/ 18/ 19 1013.4F
NANTUCKET SOUND  1750   72 70  180/ 17/ 19 1013.3F         2/ 3
MASS BAY-STELLWA 1704   70 67  150/ 16/ 19 1011.8F         2/ 4
ISLE OF SHOALS   1700   67     130/ 18/ 18 1011.9F
S OF BLOCK IS    NOT AVBL
$$

......................KEY.........................
  SKY/WX - SKY CONDITION/PRESENT WEATHER
  TMP    - TEMPERATURE IN FAHRENHEIT
  DWPT   - DEWPOINT IN FAHRENHEIT
  RH     - RELATIVE HUMIDITY IN PERCENT
  WIND   - DIRECTION AND SPEED IN MPH
  PRES   - MEAN SEA LEVEL PRESSURE IN INCHES OF HG
  WCI    - WIND CHILL INDEX
  VSB    - VISIBILITY IN MILES
  HX     - HEAT INDEX
  TC     - TEMPERATURE IN CELSIUS
  VRB    - VARIABLE WIND DIRECTION
  N/A    - NOT AVAILABLE




USA.gov is the U.S. government's official web portal to all federal, state and local government web resources and services.